[[[{"header":{"parameterUnit":"kt","parameterCategory":2,"dx":1,"dy":1,"la1":30.253999710083008,"la2":30.299108505249023,"lo1":-89.0895004272461,"lo2":-89.04439544677734,"nx":28,"ny":28,"refTime":"2022-10-21T21:00:00:Z","depth":0,"parameterNumber":1,"parameterNumberName":"U-component_of_WINDS"},"data":[-4.0995,-4.1122,-4.1171,-4.1339,-4.1413,-4.1536,-4.1597,-4.1681,-4.1761,-4.1915,-4.2013,-4.2078,-4.2179,-4.231,-4.242,-4.2447,-4.249,-4.2497,-4.2528,-4.2447,-4.2439,-4.2432,-4.2404,-4.2506,-4.2506,-4.2603,-4.2604,-4.2605,-4.093,-4.1003,-4.1107,-4.1241,-4.1331,-4.1353,-4.1463,-4.1536,-4.1647,-4.1747,-4.1847,-4.1988,-4.2106,-4.2208,-4.2331,-4.2392,-4.2411,-4.2422,-4.2418,-4.2434,-4.235,-4.232,-4.2405,-4.2405,-4.2405,-4.2405,-4.2405,-4.2405,-4.0824,-4.0898,-4.1009,-4.1122,-4.1204,-4.1294,-4.1374,-4.1452,-4.1555,-4.1689,-4.173,-4.1858,-4.1968,-4.2143,-4.2215,-4.2316,-4.2313,-4.2342,-4.2349,-4.2355,-4.2354,-4.2205,-4.234,-4.234,-4.234,-4.234,-4.234,0,-4.0763,-4.08,-4.0903,-4.1021,-4.1107,-4.1204,-4.1302,-4.1353,-4.1451,-4.1532,-4.1655,-4.1734,-4.1892,-4.2014,-4.2142,-4.2212,-4.2245,-4.2255,-4.2275,-4.2255,-4.2221,-4.224,-4.2099,-4.225,-4.225,-4.2249,-4.2249,-4.2249,-4.0659,-4.074,-4.0881,-4.0947,-4.1013,-4.1119,-4.1192,-4.1273,-4.1347,-4.1481,-4.1543,-4.1666,-4.1769,-4.1959,-4.2051,-4.217,-4.2187,-4.2239,-4.2205,-4.2183,-4.2187,-4.2181,-4.219,-4.2243,-4.2244,-4.2244,-4.2245,0,-4.0596,-4.0679,-4.0821,-4.0954,-4.099,-4.1071,-4.1185,-4.1264,-4.1332,-4.1449,-4.1482,-4.1589,-4.1709,-4.1793,-4.1948,-4.1989,-4.2125,-4.214,-4.2087,-4.2094,-4.2148,-4.2141,-4.2312,-4.2338,-4.2234,-4.2235,-4.2236,0,-4.0541,-4.0645,-4.0762,-4.084,-4.0958,-4.1037,-4.1152,-4.1222,-4.1318,-4.1412,-4.1463,-4.155,-4.1645,-4.1745,-4.1805,-4.1932,-4.1961,-4.2,-4.2014,-4.1995,-4.199,-4.2035,-4.203,-4.2045,-4.2044,-4.2044,-4.2043,0,-4.0433,-4.0618,-4.0746,-4.0801,-4.0954,-4.1013,-4.1079,-4.1188,-4.126,-4.1368,-4.1415,-4.1535,-4.1601,-4.1693,-4.1769,-4.1743,-4.1926,-4.1906,-4.1965,-4.1963,-4.2001,-4.1997,-4.2127,-4.2042,-4.2041,-4.2041,-4.2041,0,-4.0401,-4.0506,-4.0679,-4.0807,-4.0853,-4.0937,-4.1059,-4.1152,-4.1264,-4.1307,-4.1392,-4.1436,-4.1555,-4.1528,-4.1693,-4.1637,-4.1699,-4.1747,-4.1753,-4.1767,-4.1735,-4.1796,-4.1912,-4.1927,-4.1782,-4.178,-4.1778,0,-4.0254,-4.0451,-4.0519,-4.0682,-4.0785,-4.0835,-4.0931,-4.1028,-4.1094,-4.1191,-4.1264,-4.1375,-4.1374,-4.142,-4.1491,-4.1571,-4.1643,-4.1564,-4.1704,-4.1708,-4.1671,-4.1779,-4.1774,-4.1878,-4.1752,-4.1754,-4.1756,0,-4.015,-4.0334,-4.0359,-4.0425,-4.0566,-4.0653,-4.0763,-4.089,-4.0951,-4.1056,-4.115,-4.1309,-4.1314,-4.1391,-4.144,-4.1509,-4.1596,-4.1505,-4.1509,-4.1518,-4.1746,-4.1741,-4.1758,-4.1615,-4.1618,-4.1621,-4.1736,0,-4.0081,-4.0191,-4.0261,-4.0406,-4.0487,-4.0594,-4.0683,-4.0756,-4.0794,-4.0861,-4.1003,-4.1106,-4.1236,-4.1279,-4.1318,-4.1448,-4.1439,-4.1444,-4.1424,-4.1494,-4.1534,-4.1551,-4.1357,-4.1357,-4.1357,-4.1357,0,0,-3.992,-4.0079,-4.0151,-4.026,-4.0332,-4.0382,-4.0489,-4.0566,-4.0719,-4.0768,-4.0758,-4.0996,-4.1081,-4.1243,-4.1272,-4.1326,-4.1357,-4.1329,-4.146,-4.1471,-4.1482,-4.1523,-4.1539,-4.1356,-4.1356,-4.1356,-4.1356,0,-3.9913,-3.9996,-4.01,-4.0182,-4.0306,-4.0372,-4.0397,-4.0529,-4.0577,-4.0716,-4.0756,-4.0852,-4.1041,-4.1125,-4.1192,-4.1312,-4.1337,-4.1345,-4.1379,-4.1457,-4.1468,-4.1478,-4.152,-4.1535,-4.1356,-4.1356,-4.1356,0,-3.9826,-3.9923,-3.9982,-4.0149,-4.023,-4.0336,-4.0336,-4.0447,-4.0526,-4.0577,-4.0715,-4.0784,-4.0905,-4.1047,-4.1114,-4.1107,-4.1313,-4.1265,-4.1268,-4.1277,-4.1357,-4.137,-4.1382,-4.1225,-4.1224,-4.1223,0,0,-3.9808,-3.991,-4.0039,-4.0154,-4.0202,-4.0301,-4.0366,-4.0411,-4.0518,-4.056,-4.065,-4.0753,-4.0863,-4.0934,-4.1043,-4.1187,-4.1218,-4.1245,-4.1251,-4.1256,-4.1267,-4.1348,-4.1362,-4.122,-4.122,-4.122,0,0,-3.98,-3.9953,-3.9973,-4.0116,-4.0215,-4.0351,-4.0418,-4.0446,-4.0552,-4.055,-4.0632,-4.0663,-4.0798,-4.0865,-4.0812,-4.1038,-4.1016,-4.1031,-4.0988,-4.0998,-4.1004,-4.0984,-4.0828,0,0,0,0,0,-3.9837,-3.9934,-3.995,-3.9987,-4.0198,-4.0342,-4.0369,-4.0439,-4.0422,-4.0473,-4.0553,-4.0576,-4.0854,-4.0809,-4.0845,-4.0903,-4.1179,-4.1187,-4.1193,-4.1173,-4.1182,-4.1189,0,0,0,0,0,0,-3.9853,-3.9898,-3.9948,-4.0086,-4.0134,-4.0339,-4.0325,-4.0347,-4.0418,-4.042,-4.056,-4.058,-4.0643,-4.0795,-4.0827,-4.088,-4.0817,-4.1182,-4.1188,-4.1194,-4.1176,-4.1183,-4.1189,0,0,0,0,0,-3.9865,-3.9902,-4.0222,-4.0085,-4.0127,-4.0242,-4.0322,-4.034,-4.0397,-4.052,-4.0541,-4.0443,-4.0642,-4.0674,-4.0814,-4.0864,-4.0796,-4.0808,-4.1186,-4.1191,-4.1195,-4.118,0,0,0,0,0,0,-3.9875,-3.992,-4.0232,-4.0247,-4.0054,-4.0232,-4.0263,-4.0334,-4.0493,-4.0515,-4.0407,-4.0406,-4.0643,-4.0668,-4.0692,-4.0854,-4.0778,-4.079,-4.0798,-4.119,-4.1194,-4.1197,0,0,0,0,0,0,-3.9901,-3.9933,-4.024,-4.0196,-4.0207,-4.0223,-4.025,-4.0379,-4.0495,-4.0371,-4.0376,-4.0405,-4.0608,-4.0664,-4.0683,-4.0882,-4.0765,-4.0776,-4.0784,-4.0789,-4.1193,-4.1196,0,0,0,0,0,0,-3.9915,-3.9943,-4.0192,-4.0201,-4.0211,-4.0389,-4.0339,-4.0551,-4.0456,-4.0363,-4.0449,-4.0446,-4.0603,-4.0624,-4.0676,-4.0867,-4.0878,-4.0765,-4.0773,-4.0779,-4.0782,0,0,0,0,0,0,0,-3.9927,-3.9727,-4.014,-4.0205,-4.0213,-4.0389,-4.0394,-4.0398,-4.0455,-4.0452,-4.045,-4.0448,-4.0701,-4.0713,-4.0726,-4.0855,0,0,-4.0764,-4.077,0,0,0,0,0,0,0,0,-3.9717,-3.9725,-4.0141,-4.0144,-4.0147,-4.039,-4.0393,-4.0397,-4.0455,-4.0453,-4.045,-4.0449,-4.0704,-4.0714,-4.0724,0,0,0,0,0,0,0,0,0,0,0,0,0,0,0,-4.0141,-4.0144,0,-4.039,-4.0393,-4.0396,-4.0454,-4.0453,-4.0451,-4.0449,-4.0707,-4.0715,-4.0723,0,0,0,0,0,0,0,0,0,0,0,0,0,0,0,0,0,0,0,0,0,0,0,0,0,0,0,0,0,0,0,0,0,0,0,0,0,0,0,0,0,0,0,0,0,0,0,0,0,0,0,0,0,0,0,0,0,0,0,0,0,0,0,0,0,0,0,0,0]}],[{"header":{"parameterUnit":"kt","parameterCategory":2,"dx":1,"dy":1,"la1":30.253999710083008,"la2":30.299108505249023,"lo1":-89.0895004272461,"lo2":-89.04439544677734,"nx":28,"ny":28,"refTime":"2022-10-21T21:00:00:Z","depth":0,"parameterNumber":2,"parameterNumberName":"V-component_of_WINDS"},"data":[9.3504,9.3577,9.3546,9.3616,9.36,9.3642,9.3647,9.365,9.3646,9.3694,9.3716,9.3693,9.3677,9.3696,9.3719,9.3708,9.3718,9.3767,9.3745,9.3556,9.3528,9.3501,9.3478,9.3771,9.3771,9.3941,9.3943,9.3944,9.3367,9.3351,9.338,9.3386,9.3409,9.3344,9.3344,9.3368,9.3408,9.3404,9.3424,9.3464,9.3492,9.3459,9.3481,9.3514,9.3483,9.3522,9.3515,9.3513,9.3312,9.3289,9.3546,9.3546,9.3546,9.3546,9.3546,9.3546,9.3107,9.3153,9.3137,9.3168,9.3163,9.3168,9.3206,9.3176,9.3204,9.3222,9.3181,9.3226,9.3216,9.3228,9.3224,9.3259,9.321,9.3242,9.3248,9.3256,9.3267,9.3016,9.3262,9.3261,9.326,9.326,9.3259,0,9.2905,9.2875,9.29,9.2916,9.2937,9.2947,9.295,9.2974,9.2901,9.2928,9.2963,9.2979,9.301,9.304,9.3054,9.3043,9.2974,9.2967,9.2987,9.3003,9.3016,9.3004,9.2672,9.2958,9.2955,9.2953,9.2952,9.2951,9.2635,9.2695,9.2664,9.2686,9.2679,9.2718,9.2733,9.2664,9.2683,9.2679,9.2724,9.2754,9.2773,9.2838,9.2801,9.2825,9.279,9.2902,9.2793,9.2808,9.2785,9.2779,9.2782,9.2922,9.2926,9.2929,9.2931,0,9.2485,9.2432,9.2514,9.2477,9.247,9.2537,9.2504,9.2549,9.2515,9.2571,9.2581,9.2526,9.2563,9.2508,9.2541,9.2511,9.2617,9.2587,9.2618,9.2607,9.2697,9.2687,9.301,9.3046,9.2749,9.2752,9.2754,0,9.2231,9.2313,9.2227,9.2278,9.2367,9.2293,9.2383,9.2361,9.235,9.2393,9.2308,9.2351,9.2274,9.231,9.2265,9.2343,9.2351,9.233,9.2316,9.2334,9.2336,9.2338,9.2322,9.229,9.2289,9.2287,9.2286,0,9.1996,9.2049,9.2132,9.2134,9.2103,9.2144,9.2133,9.212,9.2136,9.215,9.2159,9.2182,9.2193,9.2212,9.2153,9.2081,9.2249,9.2137,9.2227,9.2228,9.2261,9.2259,9.2564,9.2284,9.2283,9.2283,9.2282,0,9.1779,9.1793,9.1924,9.1893,9.191,9.1967,9.198,9.2015,9.2008,9.1982,9.1992,9.1926,9.1993,9.1886,9.1975,9.1897,9.1913,9.19,9.1905,9.1901,9.178,9.1952,9.2254,9.228,9.1907,9.1904,9.1901,0,9.1522,9.164,9.1575,9.1701,9.1746,9.1642,9.1704,9.1699,9.167,9.1704,9.1672,9.1713,9.1621,9.1625,9.1678,9.1645,9.1749,9.1631,9.1677,9.1679,9.1675,9.1954,9.2009,9.2196,9.1861,9.1865,9.1868,0,9.1315,9.1274,9.1302,9.1299,9.1281,9.132,9.1393,9.1415,9.144,9.1447,9.1502,9.1562,9.1492,9.1502,9.145,9.1508,9.1677,9.1426,9.1424,9.1468,9.1837,9.1888,9.192,9.163,9.1634,9.1638,9.1836,0,9.0988,9.1041,9.1114,9.1116,9.1137,9.1215,9.1151,9.1182,9.1128,9.1094,9.1179,9.1161,9.1185,9.1209,9.1158,9.131,9.1274,9.1201,9.1085,9.1272,9.1335,9.1361,9.0997,9.0993,9.099,9.0988,0,0,9.0752,9.0825,9.0751,9.0817,9.0829,9.0717,9.0805,9.0805,9.0808,9.0818,9.0755,9.0834,9.0823,9.0931,9.0985,9.0998,9.1017,9.0954,9.1185,9.1208,9.1228,9.1297,9.1325,9.0982,9.0981,9.098,9.0979,0,9.0617,9.0608,9.0696,9.0692,9.0682,9.0641,9.0663,9.0634,9.0616,9.0699,9.0604,9.0648,9.0716,9.0713,9.0721,9.0942,9.0866,9.0955,9.1091,9.1156,9.1183,9.1206,9.1279,9.1307,9.0971,9.0972,9.0972,0,9.0396,9.0374,9.041,9.0435,9.0428,9.0479,9.0343,9.0405,9.0441,9.0316,9.0399,9.0381,9.0375,9.0488,9.0536,9.0479,9.0731,9.0643,9.0661,9.0663,9.0722,9.0754,9.0783,9.0406,9.0404,9.0402,0,0,9.0288,9.0337,9.029,9.0401,9.0403,9.0343,9.0365,9.0311,9.0307,9.0306,9.028,9.0279,9.0316,9.0342,9.0374,9.0509,9.0499,9.0576,9.0602,9.0624,9.0638,9.0704,9.0736,9.0396,9.0396,9.0396,0,0,9.0236,9.0185,9.013,9.0251,9.025,9.021,9.028,9.0213,9.0235,9.0218,9.0132,9.0128,9.0233,9.0219,9.0139,9.0331,9.022,9.0238,9.0335,9.0368,9.0394,9.0392,8.9995,0,0,0,0,0,9.0063,9.019,9.0142,9.0152,9.0183,9.0238,9.0242,9.0172,9.0094,9.0151,9.0118,9.0036,9.0157,9.0085,9.0097,9.0185,9.0312,9.0327,9.0341,9.0497,9.0532,9.0562,0,0,0,0,0,0,9.0066,9.008,9.0138,9.0105,9.0111,9.0233,9.0084,9.0068,9.0086,9.0069,9.0045,9.0035,8.9978,9.0074,9.0086,9.0171,8.9991,9.0318,9.033,9.0342,9.0509,9.0538,9.0563,0,0,0,0,0,9.0069,9.0079,9.0147,9.0103,9.0108,9.0047,9.0078,9.0064,9.0076,9.0025,9.0013,9.0023,8.9983,8.9988,9.008,9.0167,8.9982,8.9987,9.0326,9.0336,9.0345,9.0523,0,0,0,0,0,0,9.0071,9.0067,9.0146,9.0145,9.0049,9.0039,9.0035,9.0061,9.003,9.0019,8.9998,8.9985,8.9987,8.999,8.9995,9.0169,8.9975,8.998,8.9983,9.0333,9.0341,9.0348,0,0,0,0,0,0,9.0061,9.0067,9.0146,9.0081,9.0072,9.0032,9.0028,9.0097,9.0031,9.0004,8.9992,8.9992,8.998,8.9993,8.9996,9.0107,8.997,8.9974,8.9978,8.998,9.034,9.0346,0,0,0,0,0,0,9.0062,9.0068,9.0081,9.0074,9.0066,9.005,9.0091,9.0127,8.9976,9.0007,8.996,8.9953,8.9986,8.9987,8.9998,9.0108,9.0108,8.997,8.9973,8.9975,8.9977,0,0,0,0,0,0,0,9.0063,9.0044,9.0152,9.0068,9.0061,9.0137,9.0136,9.0136,8.9974,8.9968,8.9962,8.9956,8.9944,8.9949,8.9954,9.0109,0,0,8.9969,8.9972,0,0,0,0,0,0,0,0,9.004,9.0043,9.0152,9.0152,9.0151,9.0136,9.0136,9.0136,8.9973,8.9968,8.9963,8.9958,8.9945,8.9949,8.9953,0,0,0,0,0,0,0,0,0,0,0,0,0,0,0,9.0152,9.0152,0,9.0136,9.0136,9.0136,8.9972,8.9968,8.9964,8.996,8.9946,8.9949,8.9953,0,0,0,0,0,0,0,0,0,0,0,0,0,0,0,0,0,0,0,0,0,0,0,0,0,0,0,0,0,0,0,0,0,0,0,0,0,0,0,0,0,0,0,0,0,0,0,0,0,0,0,0,0,0,0,0,0,0,0,0,0,0,0,0,0,0,0,0,0]}]]]